Cairo, Egypt

1:39 AM EET on July 24, 2017 (GMT +0200)
Cairo International Airport

Weather History for HECA - April, 2013

Change the Weather History Date:

Wednesday, April 10, 2013

  Actual Average Record
Temperature  
Mean Temperature 66 °F -  
Max Temperature 73 °F 82 °F 87 °F (1998)
Min Temperature 58 °F 60 °F 48 °F (1997)
Growing Degree Days 16 (Base 50)    
Moisture  
Dew Point 50 °F    
Average Humidity 57    
Maximum Humidity 82    
Minimum Humidity 31    
Precipitation  
Precipitation 0.00 in 0.00 in - ()
Sea Level Pressure  
Sea Level Pressure 30.04 in    
Wind  
Wind Speed 7 mph ()    
Max Wind Speed 16 mph    
Max Gust Speed -    
Visibility 6.1 miles    
Events      
Averages and records for this station are not official NWS values.
T = Trace of Precipitation, MM = Missing Value Source: Averaged Metar Reports

Daily Weather History Graph

Daily Weather History Graph

Search for Another Location

Airport or City:

Trip Planner

Search our weather history database for the weather conditions in past years. The results will help you decide how hot, cold, wet, or windy it might be!

Date:

Astronomy

Apr. 10, 2013 Rise Set
Actual Time 5:33 AM EET 6:18 PM EET
Civil Twilight 5:08 AM EET 6:43 PM EET
Nautical Twilight 4:40 AM EET 7:11 PM EET
Astronomical Twilight 4:10 AM EET 7:41 PM EET
Moon 5:18 AM EET (4/10) 6:31 PM EET (4/10)
Length of Visible Light 13h 34m
Length of Day
12h 45m
New Moon, 0% of the Moon is Illuminated
Apr 10
New Moon
Apr 18
First Quarter
Apr 25
Full
May 2
Last Quarter
May 10
New

Hourly Weather History & Observations

Time (EET) Temp. Dew Point Humidity Pressure Visibility Wind Dir Wind Speed Gust Speed Precip Events Conditions
12:00 AM 62.6 °F 50.0 °F 63% 30.06 in - North 8.1 mph - N/A   Clear
12:30 AM 62.6 °F 50.0 °F 63% 30.06 in - North 8.1 mph - N/A   Clear
1:00 AM 60.8 °F 51.8 °F 72% 30.04 in - NNW 8.1 mph - N/A   Clear
1:30 AM 60.8 °F 51.8 °F 72% 30.04 in - NNW 8.1 mph - N/A   Clear
2:00 AM 61 °F 52 °F 65% 30.05 in 6 mi NW 5.8 mph - -  
2:00 AM 60.8 °F 51.8 °F 72% 30.04 in - NW 5.8 mph - N/A   Clear
2:30 AM 60.8 °F 51.8 °F 72% 30.04 in - NNW 5.8 mph - N/A   Clear
3:00 AM 60.8 °F 51.8 °F 72% 30.04 in - NNW 5.8 mph - N/A   Clear
3:30 AM 60.8 °F 53.6 °F 77% 30.04 in - NNW 6.9 mph - N/A   Clear
4:00 AM 59.0 °F 53.6 °F 82% 30.04 in - NNW 6.9 mph - N/A   Clear
4:30 AM 59.0 °F 53.6 °F 82% 30.04 in - NNW 5.8 mph - N/A   Clear
5:00 AM 59.0 °F 53.6 °F 82% 30.04 in - North 5.8 mph - N/A   Clear
5:30 AM 59.0 °F 53.6 °F 82% 30.04 in - North 3.5 mph - N/A   Clear
6:00 AM 59.0 °F 53.6 °F 82% 30.04 in - North 3.5 mph - N/A   Clear
6:30 AM 59.0 °F 53.6 °F 82% 30.04 in - NE 2.3 mph - N/A   Clear
7:00 AM 60.8 °F 53.6 °F 77% 30.04 in - ENE 3.5 mph - N/A   Clear
7:30 AM 60.8 °F 53.6 °F 77% 30.06 in - North 3.5 mph - N/A   Clear
8:00 AM 62 °F 53 °F 65% 30.08 in 6 mi NNE 6.9 mph - -   Scattered Clouds
8:00 AM 60.8 °F 53.6 °F 77% 30.06 in 6.2 mi NNE 6.9 mph - N/A   Scattered Clouds
8:30 AM 62.6 °F 51.8 °F 68% 30.06 in 6.2 mi North 5.8 mph - N/A   Scattered Clouds
9:00 AM 64.4 °F 51.8 °F 64% 30.06 in 6.2 mi NNW 8.1 mph - N/A   Scattered Clouds
9:30 AM 64.4 °F 51.8 °F 64% 30.06 in 6.2 mi NNW 8.1 mph - N/A   Scattered Clouds
10:00 AM 66.2 °F 51.8 °F 60% 30.06 in 6.2 mi NNW 8.1 mph - N/A   Scattered Clouds
10:30 AM 66.2 °F 50.0 °F 56% 30.06 in 6.2 mi NW 8.1 mph - N/A   Scattered Clouds
11:00 AM 68.0 °F 50.0 °F 52% 30.06 in 6.2 mi NW 10.4 mph - N/A   Scattered Clouds
11:30 AM 69.8 °F 48.2 °F 46% 30.04 in 6.2 mi NW 9.2 mph - N/A   Scattered Clouds
12:00 PM 69.8 °F 48.2 °F 46% 30.04 in 6.2 mi NNW 9.2 mph - N/A   Scattered Clouds
12:30 PM 69.8 °F 46.4 °F 43% 30.04 in 6.2 mi NNW 8.1 mph - N/A   Scattered Clouds
1:00 PM 71.6 °F 48.2 °F 43% 30.04 in 6.2 mi North 4.6 mph - N/A   Scattered Clouds
1:30 PM 71.6 °F 48.2 °F 43% 30.04 in - NNW 6.9 mph - N/A   Clear
2:00 PM 73 °F 49 °F 31% 30.02 in 6 mi SSW 3.5 mph - -   Clear
2:00 PM 73.4 °F 48.2 °F 41% 30.01 in - SSW 3.5 mph - N/A   Clear
2:30 PM 73.4 °F 46.4 °F 38% 30.01 in - WNW 9.2 mph - N/A   Clear
3:00 PM 73.4 °F 46.4 °F 38% 30.01 in - WNW 9.2 mph - N/A   Clear
3:30 PM 73.4 °F 44.6 °F 36% 29.98 in - NNW 11.5 mph - N/A   Clear
4:00 PM 73.4 °F 44.6 °F 36% 29.98 in - NNW 9.2 mph - N/A   Clear
4:30 PM 73.4 °F 46.4 °F 38% 29.98 in - WNW 9.2 mph - N/A   Clear
5:00 PM 73.4 °F 46.4 °F 38% 29.98 in - NW 10.4 mph - N/A   Clear
5:30 PM 73.4 °F 46.4 °F 38% 29.98 in - NW 9.2 mph - N/A   Clear
6:00 PM 71.6 °F 46.4 °F 41% 29.98 in - NW 12.7 mph - N/A   Clear
6:30 PM 71.6 °F 46.4 °F 41% 30.01 in - NW 9.2 mph - N/A   Clear
7:00 PM 71.6 °F 46.4 °F 41% 30.01 in - NNW 9.2 mph - N/A   Clear
7:30 PM 71.6 °F 46.4 °F 41% 30.01 in - NNW 11.5 mph - N/A   Clear
8:00 PM 69 °F 47 °F 35% 30.04 in 6 mi North 13.8 mph - -  
8:00 PM 69.8 °F 48.2 °F 46% 30.04 in - North 16.1 mph - N/A   Clear
8:30 PM 68.0 °F 48.2 °F 49% 30.04 in - North 16.1 mph - N/A   Clear
9:00 PM 66.2 °F 50.0 °F 56% 30.06 in - North 15.0 mph - N/A   Clear
9:30 PM 66.2 °F 50.0 °F 56% 30.06 in - North 12.7 mph - N/A   Clear
10:00 PM 64.4 °F 50.0 °F 59% 30.06 in - NE 13.8 mph - N/A   Clear
10:30 PM 62.6 °F 50.0 °F 63% 30.06 in - NE 11.5 mph - N/A   Clear
11:00 PM 62.6 °F 50.0 °F 63% 30.04 in - NE 11.5 mph - N/A   Clear
11:30 PM 62.6 °F 48.2 °F 59% 30.04 in - NE 11.5 mph - N/A   Clear